Simultaneous Nadir Overpasses (SNOs) Predictions

Prediction of SNOs between GOES-16 and AQUA Satellite Orbit:

Table of predicted SNOs for the next 14.0 days since TLE Epoch: 10/5/2024
Index Date Time (GOES-16) GOES-16 Lat,Lon AQUA Lat,Lon Distance(km) Time Diff (sec)
1 10/05/2024 19:08:03 -0.05, -75.21 0.60, -72.04 359.91 80
2 10/06/2024 07:25:11 0.05, -75.20 0.39, -76.83 185.26 80
3 10/08/2024 07:09:58 0.05, -75.21 -0.53, -72.46 312.70 80
4 10/08/2024 19:27:14 -0.04, -75.22 -0.48, -77.28 234.84 80
5 10/10/2024 19:11:57 -0.04, -75.22 0.43, -72.89 265.17 80
6 10/11/2024 07:29:03 0.03, -75.22 0.55, -77.67 278.84 80
7 10/13/2024 07:13:42 0.03, -75.23 -0.38, -73.26 223.63 80
8 10/13/2024 19:30:56 -0.02, -75.24 -0.62, -78.08 322.70 80
9 10/15/2024 19:15:31 -0.02, -75.26 0.31, -73.65 182.69 80
10 10/16/2024 07:32:35 0.02, -75.27 0.67, -78.43 359.79 80
11 10/18/2024 07:17:06 0.02, -75.29 -0.26, -73.99 148.05 80
12 10/18/2024 19:34:16 -0.02, -75.30 -0.79, -78.79 397.04 80
